GW4557 Weather Reports


time (UTC)temp
C
wind
direction
speed
KPH
gust
KPH
rain 1hr
cm
rain 24hr
cm
rain mn
cm
humidity
%
barometer
mb
20260504202704 14 307 12.9 20.9 0.00 0.76 0.71 82 1012.6
20260504201704 14 296 14.5 22.5 0.00 0.76 0.71 82 1012.6
20260504201205 14 295 14.5 20.9 0.00 0.76 0.71 84 1012.5
20260504200704 13 295 14.5 20.9 0.00 0.76 0.71 87 1012.4
20260504200203 13 276 9.7 11.3 0.00 0.76 0.71 87 1012.4
20260504195704 13 275 8.0 9.7 0.00 0.76 0.71 87 1012.4
20260504195204 13 282 8.0 9.7 0.00 0.76 0.71 87 1012.4
20260504194703 13 283 9.7 11.3 0.00 0.76 0.71 87 1012.3
20260504194204 14 284 9.7 11.3 0.00 0.76 0.71 87 1012.2
20260504193704 14 280 9.7 11.3 0.00 0.76 0.71 86 1012.1
20260504193204 14 287 8.0 11.3 0.00 0.76 0.71 86 1012.1
20260504191704 14 327 3.2 4.8 0.00 0.76 0.71 86 1012.0
20260504191204 14 321 3.2 4.8 0.00 0.76 0.71 85 1012.0
20260504190705 14 327 3.2 4.8 0.00 0.76 0.71 85 1011.9
20260504190205 14 348 3.2 8.0 0.00 0.76 0.71 85 1011.9
20260504185704 15 333 3.2 9.7 0.00 0.76 0.71 83 1011.8
20260504185204 15 328 6.4 11.3 0.00 0.76 0.71 85 1011.7
20260504184704 15 303 6.4 12.9 0.00 0.76 0.71 86 1011.7
20260504184204 15 284 8.0 12.9 0.00 0.76 0.71 85 1011.7
20260504183204 15 288 9.7 12.9 0.00 0.76 0.71 83 1011.7
20260504182703 15 290 8.0 14.5 0.00 0.76 0.71 83 1011.7
20260504182204 15 291 9.7 14.5 0.00 0.76 0.71 83 1011.7
20260504181704 15 282 9.7 14.5 0.00 0.76 0.71 83 1011.7
20260504181204 15 285 11.3 14.5 0.00 0.76 0.71 83 1011.7
20260504180704 15 284 11.3 16.1 0.03 0.76 0.71 82 1011.7
20260504175704 15 285 14.5 22.5 0.03 0.76 0.76 82 1011.8
20260504175204 15 284 12.9 22.5 0.03 0.76 0.76 81 1011.7
20260504174704 15 285 16.1 22.5 0.03 0.76 0.76 81 1011.6
20260504174204 15 291 14.5 22.5 0.03 0.76 0.76 80 1011.6
20260504173704 15 296 14.5 22.5 0.03 0.76 0.76 80 1011.7
20260504173204 15 279 16.1 22.5 0.03 0.76 0.76 79 1011.8
20260504172703 15 294 12.9 22.5 0.03 0.76 0.76 78 1011.7
20260504172205 15 301 14.5 22.5 0.03 0.76 0.76 79 1011.7
20260504171704 15 293 11.3 20.9 0.03 0.76 0.76 79 1011.6
20260504171204 15 289 9.7 22.5 0.03 0.76 0.76 78 1011.7
20260504170704 15 294 16.1 22.5 0.00 0.74 0.74 79 1011.7
20260504170204 15 298 12.9 22.5 0.00 0.74 0.74 78 1011.5
20260504160204 16 324 14.5 24.1 0.00 0.74 0.74 74 1011.8
20260504150704 16 313 9.7 27.4 0.00 0.74 0.74 75 1011.9
20260504150204 16 322 17.7 27.4 0.00 0.74 0.74 75 1011.8
20260504141204 16 326 11.3 22.5 0.00 0.76 0.74 82 1012.1
20260504140704 15 337 12.9 22.5 0.00 0.76 0.74 81 1012.1
20260504130704 15 344 11.3 22.5 0.00 0.76 0.74 84 1012.2
20260504130204 15 330 14.5 24.1 0.00 0.76 0.74 84 1012.2
20260504120204 13 0 9.7 20.9 0.05 0.79 0.74 91 1012.2
20260504110204 12 352 14.5 20.9 0.15 0.79 0.71 92 1012.8
20260504100203 12 345 9.7 19.3 0.20 0.64 0.56 93 1012.9
20260504081704 12 340 4.8 9.7 0.10 0.25 0.18 92 1012.5
20260504081203 12 345 3.2 9.7 0.08 0.23 0.15 91 1012.5
20260504080704 12 345 4.8 11.3 0.05 0.23 0.15 91 1012.5
20260504080204 12 331 4.8 11.3 0.05 0.23 0.15 91 1012.4
20260504060204 12 8 9.7 14.5 0.00 0.15 0.08 90 1011.6
20260504050704 11 0 11.3 16.1 0.00 0.15 0.08 92 1011.4
20260504050204 11 0 9.7 16.1 0.00 0.15 0.08 92 1011.4
20260504045704 11 1 9.7 19.3 0.00 0.15 0.08 92 1011.4
20260504045204 11 356 9.7 19.3 0.00 0.15 0.08 92 1011.5
20260504044203 11 353 9.7 16.1 0.00 0.15 0.08 92 1011.5
20260504043703 11 353 11.3 14.5 0.00 0.15 0.08 92 1011.5
20260504043204 11 350 9.7 14.5 0.00 0.15 0.08 92 1011.5
20260504042704 11 343 8.0 16.1 0.00 0.15 0.08 92 1011.5
20260504042205 11 338 8.0 16.1 0.00 0.15 0.08 92 1011.5
20260504041704 11 333 9.7 16.1 0.00 0.15 0.08 92 1011.5
20260504041204 11 342 9.7 16.1 0.00 0.15 0.08 92 1011.5
20260504040704 11 345 8.0 14.5 0.00 0.15 0.08 92 1011.5
20260504035704 11 327 9.7 16.1 0.08 0.15 0.08 92 1011.6
20260504035204 11 325 11.3 16.1 0.08 0.15 0.08 92 1011.7
20260504034704 12 321 11.3 20.9 0.08 0.15 0.08 92 1011.7
20260504034204 12 326 12.9 20.9 0.08 0.15 0.08 92 1011.7
20260504033704 12 330 8.0 14.5 0.08 0.15 0.08 92 1011.6
20260504033204 12 342 9.7 12.9 0.08 0.15 0.08 92 1011.7
20260504032704 12 349 8.0 14.5 0.08 0.15 0.08 93 1011.7
20260504032204 11 353 8.0 14.5 0.08 0.15 0.08 93 1011.6
20260504031204 11 345 9.7 14.5 0.08 0.15 0.08 93 1011.7
20260503223704 12 325 8.0 12.9 0.00 0.08 0.08 92 1012.5
20260503223204 12 326 9.7 12.9 0.00 0.08 0.08 93 1012.5
20260503222704 12 328 8.0 12.9 0.00 0.08 0.08 93 1012.5
20260503222204 12 330 11.3 12.9 0.00 0.10 0.08 93 1012.5
20260503221704 12 324 9.7 12.9 0.00 0.10 0.08 93 1012.6
20260503220704 11 325 11.3 12.9 0.00 0.13 0.08 93 1012.6
20260503220204 11 319 9.7 11.3 0.00 0.13 0.08 93 1012.6
20260503215204 11 314 4.8 8.0 0.00 0.13 0.08 93 1012.6
20260503214704 11 302 1.6 1.6 0.00 0.13 0.08 93 1012.6
20260503214203 11 345 1.6 3.2 0.00 0.13 0.08 93 1012.5
20260503213704 11 290 1.6 3.2 0.00 0.13 0.08 92 1012.5
20260503213204 11 295 1.6 3.2 0.00 0.13 0.08 93 1012.5
20260503212704 11 311 0.0 4.8 0.00 0.13 0.08 92 1012.6
20260503212204 11 294 1.6 4.8 0.00 0.13 0.08 92 1012.6
20260503211704 11 291 3.2 4.8 0.00 0.13 0.08 92 1012.6
20260503211204 11 283 3.2 4.8 0.00 0.13 0.08 92 1012.7
20260503210704 11 303 1.6 3.2 0.00 0.13 0.08 92 1012.7
20260503210204 11 251 1.6 4.8 0.00 0.13 0.08 92 1012.7
20260503205704 11 284 3.2 4.8 0.00 0.13 0.08 91 1012.6
20260503205204 11 305 3.2 4.8 0.00 0.13 0.08 91 1012.5
20260503204704 11 319 1.6 3.2 0.00 0.13 0.08 91 1012.5
20260503204204 12 320 1.6 8.0 0.00 0.13 0.08 91 1012.6
20260503203704 12 320 1.6 9.7 0.00 0.13 0.08 90 1012.5
20260503203204 12 309 4.8 11.3 0.00 0.13 0.08 90 1012.5